• en Belgique
  • Liste des pays
  • À 7 jours
  • Température de l'eau
  • Carte satellitaire
  • Carte météo
  • Widgets météo
  • user-avatar
    Se connecter

    Météo par heure à Albany

    Ce jour, 19 Juin, Mardi

    Heure Température Précipitation Vent Pression Humidité
    00:00 +9°C° 0,1 mm 6 m/s 760 mmHg 78%
    01:00 +9°C° 0,1 mm 6 m/s 760 mmHg 79%
    02:00 +9°C° 0 mm 5 m/s 760 mmHg 81%
    03:00 +9°C° 0,1 mm 6 m/s 760 mmHg 82%
    04:00 +9°C° 0,1 mm 6 m/s 760 mmHg 83%
    05:00 +9°C° 0,1 mm 6 m/s 760 mmHg 84%
    06:00 +9°C° 0,1 mm 6 m/s 760 mmHg 85%
    07:00 +9°C° 0,1 mm 6 m/s 761 mmHg 85%
    08:00 +10°C° 0,1 mm 6 m/s 761 mmHg 85%
    09:00 +11°C° 0,2 mm 6 m/s 761 mmHg 81%
    10:00 +14°C° 0,2 mm 6 m/s 761 mmHg 76%
    11:00 +16°C° 0,2 mm 6 m/s 761 mmHg 72%
    12:00 +16°C° 0,2 mm 6 m/s 761 mmHg 71%
    13:00 +17°C° 0,2 mm 6 m/s 761 mmHg 71%
    14:00 +17°C° 0,2 mm 6 m/s 761 mmHg 70%
    15:00 +17°C° 0,1 mm 6 m/s 761 mmHg 73%
    16:00 +16°C° 0,1 mm 6 m/s 762 mmHg 76%
    17:00 +15°C° 0,1 mm 5 m/s 762 mmHg 79%
    18:00 +15°C° 0,1 mm 5 m/s 762 mmHg 80%
    19:00 +14°C° 0,1 mm 5 m/s 763 mmHg 82%
    20:00 +14°C° 0,1 mm 5 m/s 763 mmHg 84%
    21:00 +13°C° 0,1 mm 5 m/s 763 mmHg 84%
    22:00 +13°C° 0,1 mm 4 m/s 764 mmHg 85%
    23:00 +13°C° 0,1 mm 4 m/s 764 mmHg 85%

    Demain, 20 Juin, Mercredi

    Heure Température Précipitation Vent Pression Humidité
    00:00 +13°C° 0,1 mm 4 m/s 764 mmHg 85%
    01:00 +13°C° 0,1 mm 4 m/s 764 mmHg 86%
    02:00 +12°C° 0,1 mm 4 m/s 764 mmHg 86%
    03:00 +12°C° 0 mm 4 m/s 764 mmHg 87%
    04:00 +12°C° 0 mm 4 m/s 764 mmHg 88%
    05:00 +11°C° 0 mm 4 m/s 764 mmHg 89%
    06:00 +11°C° 0 mm 4 m/s 764 mmHg 89%
    07:00 +11°C° 0 mm 4 m/s 764 mmHg 90%
    08:00 +11°C° 0 mm 4 m/s 764 mmHg 90%
    09:00 +13°C° 0,1 mm 5 m/s 764 mmHg 84%
    10:00 +15°C° 0,1 mm 5 m/s 764 mmHg 77%
    11:00 +17°C° 0,1 mm 5 m/s 764 mmHg 71%
    12:00 +17°C° 0,2 mm 5 m/s 764 mmHg 71%
    13:00 +17°C° 0,2 mm 6 m/s 764 mmHg 71%
    14:00 +17°C° 0,2 mm 6 m/s 763 mmHg 71%
    15:00 +16°C° 0,2 mm 6 m/s 763 mmHg 75%
    16:00 +15°C° 0,2 mm 5 m/s 763 mmHg 78%
    17:00 +15°C° 0,2 mm 5 m/s 764 mmHg 81%
    18:00 +14°C° 0 mm 5 m/s 764 mmHg 83%
    19:00 +14°C° 0 mm 5 m/s 764 mmHg 84%
    20:00 +13°C° 0 mm 5 m/s 764 mmHg 85%
    21:00 +13°C° 0 mm 5 m/s 764 mmHg 86%
    22:00 +12°C° 0 mm 5 m/s 765 mmHg 87%
    23:00 +12°C° 0 mm 5 m/s 765 mmHg 88%

    Après-demain, 21 Juin, Jeudi

    Heure Température Précipitation Vent Pression Humidité
    00:00 +12°C° 0,2 mm 5 m/s 764 mmHg 88%
    01:00 +12°C° 0,2 mm 5 m/s 764 mmHg 88%
    02:00 +12°C° 0,2 mm 5 m/s 764 mmHg 88%
    03:00 +12°C° 0,2 mm 5 m/s 764 mmHg 88%
    04:00 +12°C° 0,2 mm 5 m/s 764 mmHg 88%
    05:00 +12°C° 0,2 mm 5 m/s 764 mmHg 89%
    06:00 +12°C° 0 mm 4 m/s 764 mmHg 89%
    07:00 +12°C° 0 mm 4 m/s 765 mmHg 89%
    08:00 +12°C° 0 mm 4 m/s 765 mmHg 89%
    09:00 +13°C° 0 mm 4 m/s 765 mmHg 84%
    10:00 +16°C° 0 mm 3 m/s 765 mmHg 79%
    11:00 +17°C° 0 mm 3 m/s 765 mmHg 74%
    12:00 +17°C° 0,1 mm 3 m/s 765 mmHg 76%
    13:00 +16°C° 0,1 mm 3 m/s 765 mmHg 78%
    14:00 +16°C° 0,1 mm 3 m/s 764 mmHg 80%
    15:00 +16°C° 0,1 mm 3 m/s 764 mmHg 82%
    16:00 +14°C° 0,1 mm 3 m/s 765 mmHg 84%
    17:00 +14°C° 0,1 mm 3 m/s 765 mmHg 86%
    18:00 +14°C° 0 mm 2 m/s 765 mmHg 86%
    19:00 +14°C° 0 mm 2 m/s 765 mmHg 86%
    20:00 +14°C° 0 mm 2 m/s 766 mmHg 86%
    21:00 +13°C° 0,1 mm 1 m/s 766 mmHg 87%
    22:00 +13°C° 0,1 mm 1 m/s 765 mmHg 88%
    23:00 +13°C° 0,1 mm 1 m/s 765 mmHg 89%

    22 Juin, Vendredi

    Heure Température Précipitation Vent Pression Humidité
    00:00 +12°C° 0,1 mm 1 m/s 765 mmHg 90%
    01:00 +12°C° 0,1 mm 1 m/s 765 mmHg 90%
    02:00 +12°C° 0,1 mm 1 m/s 765 mmHg 91%
    03:00 +12°C° 0 mm 1 m/s 765 mmHg 92%
    04:00 +10°C° 0 mm 2 m/s 765 mmHg 93%
    05:00 +10°C° 0 mm 2 m/s 765 mmHg 94%
    06:00 +10°C° 0 mm 2 m/s 765 mmHg 94%
    07:00 +10°C° 0 mm 2 m/s 765 mmHg 93%
    08:00 +10°C° 0 mm 3 m/s 766 mmHg 93%
    09:00 +12°C° 0 mm 3 m/s 766 mmHg 86%
    10:00 +13°C° 0 mm 3 m/s 766 mmHg 79%
    11:00 +16°C° 0 mm 3 m/s 766 mmHg 72%
    12:00 +17°C° 0 mm 3 m/s 765 mmHg 68%
    13:00 +18°C° 0 mm 4 m/s 765 mmHg 64%
    14:00 +18°C° 0 mm 4 m/s 764 mmHg 60%
    15:00 +17°C° 0,1 mm 4 m/s 764 mmHg 66%
    16:00 +15°C° 0,1 mm 4 m/s 764 mmHg 71%
    17:00 +15°C° 0,1 mm 4 m/s 765 mmHg 77%
    18:00 +14°C° 0,1 mm 4 m/s 765 mmHg 79%
    19:00 +13°C° 0,1 mm 3 m/s 765 mmHg 81%
    20:00 +13°C° 0,1 mm 3 m/s 765 mmHg 84%
    21:00 +12°C° 0 mm 3 m/s 765 mmHg 85%
    22:00 +12°C° 0 mm 3 m/s 765 mmHg 87%
    23:00 +11°C° 0 mm 4 m/s 765 mmHg 88%

    23 Juin, Samedi

    Heure Température Précipitation Vent Pression Humidité
    00:00 +11°C° 0 mm 4 m/s 765 mmHg 89%
    01:00 +11°C° 0 mm 4 m/s 765 mmHg 89%
    02:00 +11°C° 0 mm 4 m/s 764 mmHg 90%
    03:00 +11°C° 0,2 mm 4 m/s 764 mmHg 89%
    04:00 +11°C° 0,2 mm 4 m/s 764 mmHg 89%
    05:00 +11°C° 0,2 mm 4 m/s 764 mmHg 89%
    06:00 +11°C° 0,3 mm 4 m/s 765 mmHg 89%
    07:00 +11°C° 0,3 mm 4 m/s 765 mmHg 89%
    08:00 +12°C° 0,3 mm 4 m/s 765 mmHg 89%
    09:00 +12°C° 0,1 mm 4 m/s 765 mmHg 87%
    10:00 +13°C° 0,1 mm 4 m/s 765 mmHg 85%
    11:00 +14°C° 0,1 mm 3 m/s 766 mmHg 83%
    12:00 +14°C° 0 mm 4 m/s 765 mmHg 78%
    13:00 +15°C° 0 mm 4 m/s 765 mmHg 73%
    14:00 +15°C° 0 mm 4 m/s 764 mmHg 68%
    15:00 +15°C° 0 mm 4 m/s 765 mmHg 69%
    16:00 +14°C° 0 mm 4 m/s 765 mmHg 69%
    17:00 +14°C° 0 mm 4 m/s 765 mmHg 69%
    18:00 +13°C° 0 mm 4 m/s 765 mmHg 72%
    19:00 +12°C° 0 mm 4 m/s 766 mmHg 75%
    20:00 +12°C° 0 mm 3 m/s 766 mmHg 77%
    21:00 +12°C° 0 mm 3 m/s 766 mmHg 79%
    22:00 +11°C° 0 mm 3 m/s 766 mmHg 80%
    23:00 +11°C° 0 mm 3 m/s 766 mmHg 82%

    24 Juin, Dimanche

    Heure Température Précipitation Vent Pression Humidité
    00:00 +11°C° 0 mm 3 m/s 766 mmHg 82%
    01:00 +11°C° 0 mm 3 m/s 766 mmHg 82%
    02:00 +11°C° 0 mm 3 m/s 766 mmHg 82%
    03:00 +11°C° 0 mm 3 m/s 766 mmHg 83%
    04:00 +12°C° 0 mm 2 m/s 765 mmHg 83%
    05:00 +12°C° 0 mm 2 m/s 765 mmHg 83%
    06:00 +12°C° 0 mm 2 m/s 766 mmHg 83%
    07:00 +12°C° 0 mm 2 m/s 766 mmHg 83%
    08:00 +12°C° 0 mm 2 m/s 766 mmHg 83%
    09:00 +14°C° 0 mm 2 m/s 766 mmHg 78%
    10:00 +15°C° 0 mm 2 m/s 766 mmHg 73%
    11:00 +17°C° 0 mm 2 m/s 766 mmHg 68%
    12:00 +17°C° 0 mm 2 m/s 765 mmHg 66%
    13:00 +18°C° 0 mm 2 m/s 765 mmHg 63%
    14:00 +18°C° 0 mm 2 m/s 764 mmHg 61%
    15:00 +17°C° 0 mm 2 m/s 764 mmHg 67%
    16:00 +16°C° 0 mm 2 m/s 764 mmHg 72%
    17:00 +15°C° 0 mm 2 m/s 764 mmHg 77%
    18:00 +14°C° 0 mm 2 m/s 765 mmHg 81%
    19:00 +14°C° 0 mm 1 m/s 765 mmHg 85%
    20:00 +13°C° 0 mm 1 m/s 765 mmHg 88%
    21:00 +13°C° 0 mm 1 m/s 765 mmHg 89%
    22:00 +12°C° 0 mm 1 m/s 764 mmHg 91%
    23:00 +12°C° 0 mm 2 m/s 764 mmHg 92%
    Voir plus